Location: Los Gatos B&B
(42.6926°N, 77.0646°W)
Time: 05:44:38
(UTC-04:00)

Amateur Radio Satellites - All Passes

Search period start: 31 March 2015 05:14
Search period end: 01 April 2015 05:14
Location: Los Gatos B&B, 42.6926°N, 77.0646°W

Satellite Date Start Highest point End Downlink Frequencies (MHz)
Time Altitude Azimuth
AIST 1 31 Mar 05:18:33 05:22:33 33° 285° (WNW) 05:26:32
O/OREOS (USA 219) 31 Mar 05:38:19 05:41:56 22° 306° (NW) 05:45:29 437.305
VERMONT LUNAR 31 Mar 05:44:28 05:47:30 32° 162° (SSE) 05:50:34 437.305
MOZHAYETS 4 31 Mar 05:49:41 05:53:49 31° 265° (W) 05:57:57
AUBIESAT-1 31 Mar 05:55:17 05:59:15 50° 256° (WSW) 06:03:35 437.475
STRAND 1 31 Mar 05:58:14 06:01:40 19° 63° (ENE) 06:05:16 437.568
CUBESAT XI-V 31 Mar 06:04:34 06:08:43 32° 69° (ENE) 06:12:55 437.345
HORYU 2 31 Mar 06:06:35 06:09:42 18° 295° (WNW) 06:12:41 437.375
PRISM 31 Mar 06:08:08 06:11:41 27° 68° (ENE) 06:15:17 437.425
ISS 31 Mar 06:17:38 06:19:40 15° 227° (SW) 06:21:36 145.825
RS-15 31 Mar 06:20:21 06:30:13 33° 253° (WSW) 06:40:01 29.354- 29.394
M-CUBED/EXP-1 PRIME 31 Mar 06:22:16 06:25:37 23° 263° (W) 06:29:06 437.505
AO-7 31 Mar 06:34:47 06:42:39 48° 297° (WNW) 06:50:24 29.400- 29.500
CUTE-I 31 Mar 06:39:11 06:43:28 25° 93° (E) 06:47:50 437.470
JAS-2 31 Mar 06:39:39 06:46:41 38° 296° (WNW) 06:53:09 435.910
Cubesat XI-IV 31 Mar 06:39:53 06:44:14 26° 93° (E) 06:48:39 437.490
PHONESAT 2.4 31 Mar 06:39:54 06:43:10 36° 162° (SSE) 06:46:26 2401.200-2431.200
GONETS M04 31 Mar 06:45:44 06:54:31 67° 78° (ENE) 07:03:20
CUSAT 1 31 Mar 07:18:43 07:22:30 27° 75° (ENE) 07:27:22 437.405
VERMONT LUNAR 31 Mar 07:21:40 07:24:58 59° 177° (S) 07:28:16 437.305
STRAND 1 31 Mar 07:35:23 07:40:28 60° 260° (W) 07:45:34 437.568
CUBESAT XI-V 31 Mar 07:42:08 07:46:12 27° 266° (W) 07:50:11 437.345
PRISM 31 Mar 07:43:30 07:47:07 27° 265° (W) 07:50:43 437.425
PHONESAT 2.4 31 Mar 08:17:47 08:21:16 61° 179° (S) 08:24:46 2401.200-2431.200
CUTE-I 31 Mar 08:18:44 08:23:46 43° 291° (WNW) 08:28:44 437.470
DANDE 31 Mar 08:19:21 08:23:28 79° 79° (E) 08:29:06 436.750
Cubesat XI-IV 31 Mar 08:19:30 08:24:32 42° 291° (WNW) 08:29:29 437.490
HO-68 31 Mar 08:23:34 08:26:48 14° 85° (E) 08:30:30 435.675
AO-7 31 Mar 08:30:53 08:33:34 12° 318° (NW) 08:35:49 29.400- 29.500
GONETS M04 31 Mar 08:43:36 08:50:46 27° 277° (W) 08:57:37
BRITE-PL 31 Mar 08:49:42 08:53:10 24° 95° (E) 08:56:48 437.365/2234.400
VERMONT LUNAR 31 Mar 08:59:17 09:02:28 40° 195° (SSW) 09:05:37 437.305
CUSAT 1 31 Mar 09:01:12 09:05:16 32° 263° (W) 09:10:25 437.405
SEEDS 31 Mar 09:04:02 09:06:35 16° 90° (E) 09:09:19 437.485
DOVE 4 31 Mar 09:06:30 09:09:20 17° 91° (E) 09:12:24 437.250
BEESAT 3 31 Mar 09:13:22 09:15:06 13° 110° (ESE) 09:17:02 437.485
COMPASS 1 31 Mar 09:23:01 09:26:12 21° 92° (E) 09:29:28 437.405
GOMX 1 31 Mar 09:26:07 09:30:10 39° 98° (E) 09:34:26 467.674
UNISAT 6 31 Mar 09:28:31 09:29:11 10° 61° (ENE) 09:30:04 437.425
Oscar 11 31 Mar 09:35:39 09:37:06 12° 87° (E) 09:38:48 145.826/435.025
TIGRISAT 31 Mar 09:36:41 09:38:25 13° 62° (ENE) 09:40:21 435.000
PHONESAT 2.4 31 Mar 09:56:05 09:59:25 40° 196° (SSW) 10:02:45 2401.200-2431.200
DELFI C3 31 Mar 09:57:38 09:59:58 15° 90° (E) 10:02:28 145.870
QB50P2 31 Mar 09:57:55 09:59:08 11° 62° (ENE) 10:00:32 145.880/145.840
CANX-2 31 Mar 09:58:31 10:02:52 83° 105° (ESE) 10:07:11 2200.000
UWE-3 31 Mar 09:58:43 10:01:07 15° 90° (E) 10:03:44 435.000/436.395/437.385
AIST 2 31 Mar 10:02:04 10:03:51 13° 110° (ESE) 10:05:51 435.215
ZACube-1 31 Mar 10:03:15 10:05:11 13° 88° (E) 10:07:22 437.345
ANTELSAT 31 Mar 10:06:02 10:09:32 25° 68° (ENE) 10:13:09 437.575/2403.000
CUBEBUG 2 31 Mar 10:07:08 10:10:33 22° 93° (E) 10:14:08 437.445
CINEMA 3 31 Mar 10:07:51 10:12:02 40° 98° (E) 10:16:25 145.822/145.860
HO-68 31 Mar 10:08:33 10:15:48 81° 105° (ESE) 10:23:00 435.675
CUTE 1.7 + AOD 2 31 Mar 10:12:10 10:16:30 77° 283° (WNW) 10:20:49 437.475
BEESAT 2 31 Mar 10:14:06 10:18:02 47° 118° (ESE) 10:22:04 435.950
BUGSAT 1 31 Mar 10:14:33 10:15:55 12° 63° (ENE) 10:17:28 437.445
POPSAT HIP 1 31 Mar 10:24:09 10:27:14 21° 67° (ENE) 10:30:26 437.405
BRITE-PL 31 Mar 10:28:04 10:31:45 29° 290° (WNW) 10:35:31 437.365/2234.400
AAUSAT CUBESAT 2 31 Mar 10:29:00 10:33:16 84° 284° (WNW) 10:37:29 437.432
NANOSAT C BR1 31 Mar 10:33:29 10:36:56 26° 68° (ENE) 10:40:27 145.865
HUMSAT D 31 Mar 10:37:56 10:40:19 15° 90° (E) 10:42:52 437.325/437.525
VERMONT LUNAR 31 Mar 10:37:57 10:39:40 13° 210° (SSW) 10:41:18 437.305
SEEDS 31 Mar 10:38:35 10:42:44 46° 287° (WNW) 10:46:49 437.485
POLYITAN 1 31 Mar 10:39:21 10:43:01 30° 69° (ENE) 10:46:44 437.675
UKube-1 31 Mar 10:41:21 10:44:41 22° 94° (E) 10:48:04 .
DOVE 4 31 Mar 10:43:12 10:47:22 45° 287° (WNW) 10:51:44 437.250
BEESAT 3 31 Mar 10:48:38 10:52:42 64° 306° (NW) 10:56:50 437.485
DX 1 31 Mar 10:53:54 10:57:45 31° 96° (E) 11:01:38 434.975-435.025
COMPASS 1 31 Mar 10:58:08 11:02:01 35° 289° (WNW) 11:05:52 437.405
50 SAT 31 Mar 11:00:43 11:03:16 16° 91° (E) 11:05:56 437.505
UNISAT 6 31 Mar 11:01:06 11:05:22 82° 257° (WSW) 11:09:44 437.425
GOMX 1 31 Mar 11:04:58 11:08:09 20° 292° (WNW) 11:11:18 467.674
Oscar 11 31 Mar 11:09:28 11:13:49 66° 285° (WNW) 11:18:07 145.826/435.025
TIGRISAT 31 Mar 11:10:26 11:14:40 67° 259° (W) 11:18:59 435.000
QB50P1 31 Mar 11:14:44 11:18:56 73° 75° (ENE) 11:23:09 145.935-145.965
DUCHIFAT 1 31 Mar 11:15:23 11:19:34 73° 75° (ENE) 11:23:47 145.980
FUNcube-1 31 Mar 11:23:54 11:28:19 88° 283° (WNW) 11:32:49 145.935
QB50P2 31 Mar 11:30:18 11:34:31 73° 258° (WSW) 11:38:45 145.880/145.840
DELFI C3 31 Mar 11:31:30 11:35:27 45° 287° (WNW) 11:39:20 145.870
UWE-3 31 Mar 11:33:42 11:38:03 55° 286° (WNW) 11:42:29 435.000/436.395/437.385
PHONESAT 2.4 31 Mar 11:35:27 11:37:14 13° 211° (SSW) 11:38:57 2401.200-2431.200
CUBEBUG 1 31 Mar 11:36:44 11:39:42 18° 91° (E) 11:42:48 437.445
CANX-2 31 Mar 11:37:21 11:38:13 10° 298° (WNW) 11:38:51 2200.000
ZACube-1 31 Mar 11:37:39 11:42:00 62° 286° (WNW) 11:46:26 437.345
AIST 2 31 Mar 11:37:43 11:41:58 68° 305° (NW) 11:46:16 435.215
VELOX 1 31 Mar 11:41:55 11:46:09 45° 99° (E) 11:50:23 145.980
ANTELSAT 31 Mar 11:42:30 11:46:16 29° 265° (W) 11:50:03 437.575/2403.000
CUBEBUG 2 31 Mar 11:43:16 11:47:23 37° 289° (WNW) 11:51:34 437.445
CINEMA 3 31 Mar 11:45:41 11:49:04 21° 292° (WNW) 11:52:27 145.822/145.860
BUGSAT 1 31 Mar 11:46:48 11:50:56 68° 258° (WSW) 11:55:03 437.445
AISAT 31 Mar 11:47:27 11:51:47 54° 100° (E) 11:56:06 437.250
BEESAT 2 31 Mar 11:53:13 11:56:27 21° 317° (NW) 11:59:38 435.950
HO-68 31 Mar 11:57:30 12:02:50 22° 303° (WNW) 12:07:57 435.675
POPSAT HIP 1 31 Mar 11:59:02 12:02:57 35° 263° (W) 12:06:50 437.405
NANOSAT C BR1 31 Mar 12:09:04 12:12:44 28° 265° (W) 12:16:22 145.865
HUMSAT D 31 Mar 12:12:16 12:16:25 50° 286° (WNW) 12:20:34 437.325/437.525
POLYITAN 1 31 Mar 12:15:31 12:18:59 24° 266° (W) 12:22:22 437.675
UKube-1 31 Mar 12:16:59 12:20:56 34° 290° (WNW) 12:24:50 .
ESTCUBE 1 31 Mar 12:23:55 12:28:26 68° 101° (ESE) 12:32:54 437.505/2401.250
O/OREOS (USA 219) 31 Mar 12:29:36 12:31:25 12° 47° (NE) 12:33:25 437.305
DX 1 31 Mar 12:30:20 12:33:54 25° 293° (WNW) 12:37:22 434.975-435.025
BEESAT 3 31 Mar 12:30:32 12:31:39 11° 327° (NNW) 12:32:36 437.485
50 SAT 31 Mar 12:34:35 12:38:23 40° 288° (WNW) 12:42:11 437.505
Oscar 19 31 Mar 12:35:20 12:38:58 21° 64° (ENE) 12:42:45 437.125/150
TISAT 1 31 Mar 12:54:54 12:58:30 28° 95° (E) 13:02:10 437.305
Gurwin Techsat 1B 31 Mar 13:09:43 13:11:33 12° 58° (ENE) 13:13:40 435.225
CUBEBUG 1 31 Mar 13:12:14 13:16:18 40° 289° (WNW) 13:20:20 437.445
SPROUT 31 Mar 13:12:44 13:16:56 54° 100° (E) 13:21:09 437.525
VELOX 1 31 Mar 13:19:20 13:22:26 18° 295° (WNW) 13:25:23 145.980
AIST 2 31 Mar 13:19:44 13:21:26 12° 326° (NW) 13:23:01 435.215
AISAT 31 Mar 13:25:16 13:28:01 16° 296° (WNW) 13:30:36 437.250
YUBILEINY 31 Mar 13:33:27 13:41:44 49° 89° (E) 13:50:09 435.215
ITAMSAT 1 31 Mar 13:44:40 13:49:06 30° 66° (ENE) 13:53:36 435.822/435.867
ITUPSAT 1 31 Mar 13:54:23 13:57:51 20° 92° (E) 14:01:27 437.325
AO-7 31 Mar 13:54:27 13:58:21 15° 46° (NE) 14:02:39 29.400- 29.500
PCSat 31 Mar 13:57:51 14:02:06 25° 109° (ESE) 14:06:28 145.827
ESTCUBE 1 31 Mar 14:02:30 14:04:49 14° 298° (WNW) 14:06:56 437.505/2401.250
O/OREOS (USA 219) 31 Mar 14:07:01 14:11:36 87° 246° (WSW) 14:16:06 437.305
Oscar 19 31 Mar 14:12:59 14:17:59 53° 260° (W) 14:23:01 437.125/150
TISAT 1 31 Mar 14:30:45 14:34:16 26° 291° (WNW) 14:37:41 437.305
SWISSCUBE 31 Mar 14:40:22 14:45:08 64° 102° (ESE) 14:49:52 437.505
BEESAT 31 Mar 14:42:55 14:47:41 63° 101° (E) 14:52:25 436.000
Gurwin Techsat 1B 31 Mar 14:45:29 14:50:47 82° 77° (ENE) 14:56:09 435.225
SPROUT 31 Mar 14:50:08 14:52:39 15° 296° (WNW) 14:55:01 437.525
JAS-2 31 Mar 15:07:17 15:12:53 26° 59° (ENE) 15:19:01 435.910
ITAMSAT 1 31 Mar 15:23:42 15:28:31 36° 263° (W) 15:33:19 435.822/435.867
AIST 1 31 Mar 15:24:31 15:28:49 63° 80° (E) 15:33:02
HORYU 2 31 Mar 15:28:01 15:32:17 49° 72° (ENE) 15:36:37 437.375
YUBILEINY 31 Mar 15:30:40 15:38:49 39° 290° (WNW) 15:46:53 435.215
ITUPSAT 1 31 Mar 15:31:27 15:36:02 45° 289° (WNW) 15:40:33 437.325
PCSat 31 Mar 15:39:58 15:45:14 50° 306° (NW) 15:50:32 145.827
AO-7 31 Mar 15:41:34 15:49:38 60° 66° (ENE) 15:57:46 29.400- 29.500
KKS-1 31 Mar 15:51:56 15:56:21 63° 101° (E) 16:00:47 437.445
STARS 31 Mar 16:18:33 16:22:59 78° 104° (ESE) 16:27:24 437.465
SWISSCUBE 31 Mar 16:19:37 16:22:32 16° 298° (WNW) 16:25:16 437.505
BEESAT 31 Mar 16:22:06 16:25:05 16° 297° (WNW) 16:27:53 436.000
Gurwin Techsat 1B 31 Mar 16:29:05 16:31:33 13° 273° (W) 16:33:42 435.225
JAS-2 31 Mar 16:50:12 16:57:11 73° 259° (W) 17:04:56 435.910
AIST 1 31 Mar 17:04:43 17:05:57 11° 275° (W) 17:06:57
HORYU 2 31 Mar 17:06:26 17:09:17 16° 270° (W) 17:11:59 437.375
PCSat 31 Mar 17:28:16 17:30:05 11° 329° (NNW) 17:31:42 145.827
KKS-1 31 Mar 17:30:08 17:32:34 14° 297° (WNW) 17:34:48 437.445
BEESAT 3 31 Mar 17:30:16 17:32:29 14° 37° (NE) 17:34:48 437.485
AO-7 31 Mar 17:35:38 17:42:55 32° 265° (W) 17:50:03 29.400- 29.500
AUBIESAT-1 31 Mar 17:37:24 17:39:38 14° 92° (E) 17:42:06 437.475
MOZHAYETS 4 31 Mar 17:43:28 17:48:05 58° 100° (E) 17:52:39
GONETS M04 31 Mar 17:56:45 18:00:22 14° 76° (ENE) 18:04:39
STARS 31 Mar 17:57:19 17:58:54 12° 298° (WNW) 18:00:16 437.465
CUTE-I 31 Mar 18:01:33 18:06:36 45° 70° (ENE) 18:11:42 437.470
Cubesat XI-IV 31 Mar 18:02:25 18:07:31 46° 70° (ENE) 18:12:38 437.490
M-CUBED/EXP-1 PRIME 31 Mar 18:02:30 18:06:36 27° 98° (E) 18:10:41 437.505
AIST 2 31 Mar 18:21:33 18:24:00 15° 37° (NE) 18:26:32 435.215
SO-50 31 Mar 18:29:08 18:33:24 38° 116° (ESE) 18:37:51 436.795
RS-15 31 Mar 18:32:12 18:42:04 43° 110° (ESE) 18:52:14 29.354- 29.394
BEESAT 2 31 Mar 18:32:55 18:36:49 38° 50° (NE) 18:40:41 435.950
JAS-2 31 Mar 18:40:33 18:43:54 13° 281° (W) 18:46:46 435.910
HO-68 31 Mar 18:54:47 18:57:55 14° 51° (NE) 19:01:27 435.675
BEESAT 3 31 Mar 19:07:00 19:11:09 84° 240° (WSW) 19:15:12 437.485
AUBIESAT-1 31 Mar 19:10:11 19:15:02 73° 290° (WNW) 19:19:43 437.475
MOZHAYETS 4 31 Mar 19:21:58 19:24:52 16° 296° (WNW) 19:27:37
PRISM 31 Mar 19:24:50 19:28:44 38° 98° (E) 19:32:37 437.425
M-CUBED/EXP-1 PRIME 31 Mar 19:37:03 19:41:32 37° 296° (WNW) 19:45:53 437.505
CUBESAT XI-V 31 Mar 19:37:17 19:41:56 71° 101° (ESE) 19:46:31 437.345
CUTE-I 31 Mar 19:42:31 19:46:55 25° 267° (W) 19:51:12 437.470
Cubesat XI-IV 31 Mar 19:43:31 19:47:52 24° 267° (W) 19:52:06 437.490
STRAND 1 31 Mar 19:45:13 19:50:05 43° 98° (E) 19:54:56 437.568
GONETS M04 31 Mar 19:47:12 19:55:51 74° 94° (E) 20:04:35
SEEDS 31 Mar 19:58:00 19:59:57 13° 64° (ENE) 20:02:05 437.485
AIST 2 31 Mar 19:58:56 20:03:13 83° 238° (WSW) 20:07:24 435.215
BRITE-PL 31 Mar 20:01:32 20:05:35 32° 71° (ENE) 20:09:28 437.365/2234.400
SO-50 31 Mar 20:09:53 20:14:03 30° 316° (NW) 20:18:18 436.795
BEESAT 2 31 Mar 20:11:33 20:14:46 22° 247° (WSW) 20:17:52 435.950
DOVE 4 31 Mar 20:13:44 20:16:37 18° 67° (ENE) 20:19:33 437.250
COMPASS 1 31 Mar 20:15:53 20:18:31 17° 66° (ENE) 20:21:17 437.405
CUSAT 1 31 Mar 20:31:55 20:33:29 15° 94° (E) 20:35:06 437.405
Oscar 11 31 Mar 20:32:14 20:33:24 11° 62° (ENE) 20:34:48 145.826/435.025
GOMX 1 31 Mar 20:35:24 20:39:37 46° 73° (ENE) 20:43:41 467.674
HO-68 31 Mar 20:37:24 20:44:27 65° 70° (ENE) 20:51:35 435.675
RS-15 31 Mar 20:43:25 20:54:10 59° 313° (NW) 21:05:09 29.354- 29.394
DELFI C3 31 Mar 20:47:39 20:48:57 12° 63° (ENE) 20:50:27 145.870
AUBIESAT-1 31 Mar 20:47:46 20:49:03 11° 307° (NW) 20:50:05 437.475
CANX-2 31 Mar 20:52:04 20:56:15 64° 75° (ENE) 21:00:31 2200.000
UWE-3 31 Mar 20:58:01 20:59:47 13° 64° (ENE) 21:01:43 435.000/436.395/437.385
PRISM 31 Mar 21:00:57 21:03:59 19° 294° (WNW) 21:06:54 437.425
ZACube-1 31 Mar 21:01:35 21:02:45 11° 63° (ENE) 21:04:08 437.345
CUTE 1.7 + AOD 2 31 Mar 21:05:34 21:09:48 83° 76° (ENE) 21:14:06 437.475
CUBEBUG 2 31 Mar 21:07:07 21:10:00 19° 67° (ENE) 21:13:01 437.445
CINEMA 3 31 Mar 21:10:58 21:14:47 37° 72° (ENE) 21:18:39 145.822/145.860
CUBESAT XI-V 31 Mar 21:16:31 21:18:51 13° 298° (WNW) 21:20:58 437.345
AAUSAT CUBESAT 2 31 Mar 21:20:25 21:24:34 72° 76° (ENE) 21:28:47 437.432
ISS 31 Mar 21:21:35 21:22:58 12° 132° (SE) 21:24:28 145.825
STRAND 1 31 Mar 21:24:57 21:29:04 24° 295° (WNW) 21:33:05 437.568
SEEDS 31 Mar 21:31:09 21:35:18 61° 260° (W) 21:39:31 437.485
HUMSAT D 31 Mar 21:32:00 21:33:32 12° 63° (ENE) 21:35:16 437.325/437.525
DANDE 31 Mar 21:35:38 21:38:32 69° 279° (W) 21:41:09 436.750
UKube-1 31 Mar 21:37:18 21:40:35 22° 66° (ENE) 21:43:58 .
BRITE-PL 31 Mar 21:40:25 21:44:12 24° 266° (W) 21:47:43 437.365/2234.400
GONETS M04 31 Mar 21:46:43 21:53:44 25° 297° (WNW) 22:00:32
50 SAT 31 Mar 21:49:09 21:50:25 12° 64° (ENE) 21:51:53 437.505
COMPASS 1 31 Mar 21:49:52 21:53:54 45° 262° (W) 21:57:58 437.405
DOVE 4 31 Mar 21:50:09 21:54:12 39° 262° (W) 21:58:07 437.250
DX 1 31 Mar 21:50:20 21:54:09 31° 69° (ENE) 21:58:01 434.975-435.025
Oscar 11 31 Mar 22:04:42 22:09:01 78° 258° (WSW) 22:13:23 145.826/435.025
CUSAT 1 31 Mar 22:15:16 22:16:16 11° 290° (WNW) 22:17:10 437.405
GOMX 1 31 Mar 22:15:19 22:18:04 16° 269° (W) 22:20:35 467.674
DELFI C3 31 Mar 22:19:35 22:23:38 67° 259° (W) 22:27:44 145.870
FUNcube-1 31 Mar 22:20:34 22:24:41 79° 76° (ENE) 22:28:53 145.935
HO-68 31 Mar 22:27:01 22:32:47 25° 269° (W) 22:38:22 435.675
CANX-2 31 Mar 22:31:16 22:32:44 11° 273° (W) 22:33:58 2200.000
UWE-3 31 Mar 22:31:47 22:35:53 60° 260° (W) 22:40:01 435.000/436.395/437.385
CUBEBUG 1 31 Mar 22:34:03 22:37:03 19° 66° (ENE) 22:40:09 437.445
ZACube-1 31 Mar 22:34:29 22:38:37 70° 259° (WSW) 22:42:48 437.345
VELOX 1 31 Mar 22:40:16 22:44:30 45° 71° (ENE) 22:48:45 145.980
CUBEBUG 2 31 Mar 22:42:38 22:46:30 37° 263° (W) 22:50:22 437.445
PCSat 31 Mar 22:44:04 22:48:37 27° 46° (NE) 22:53:12 145.827
AISAT 31 Mar 22:46:00 22:50:19 53° 73° (ENE) 22:54:40 437.250
CINEMA 3 31 Mar 22:49:18 22:52:14 18° 269° (W) 22:55:02 145.822/145.860
UNISAT 6 31 Mar 22:52:51 22:56:14 20° 92° (E) 22:59:47 437.425
ISS 31 Mar 22:55:44 22:58:58 82° 324° (NW) 23:02:15 145.825
RS-15 31 Mar 23:00:48 23:09:39 26° 344° (NNW) 23:18:37 29.354- 29.394
QB50P1 31 Mar 23:01:35 23:02:45 11° 88° (E) 23:04:11 145.935-145.965
TIGRISAT 31 Mar 23:01:37 23:05:20 24° 94° (E) 23:09:10 435.000
DUCHIFAT 1 31 Mar 23:02:02 23:03:03 11° 88° (E) 23:04:19 145.980
HUMSAT D 31 Mar 23:04:47 23:08:50 64° 259° (W) 23:12:57 437.325/437.525
UKube-1 31 Mar 23:12:32 23:16:33 36° 263° (W) 23:20:34 .
QB50P2 31 Mar 23:16:01 23:18:46 17° 91° (E) 23:21:39 145.880/145.840
50 SAT 31 Mar 23:21:00 23:24:52 61° 259° (W) 23:28:47 437.505
ESTCUBE 1 31 Mar 23:24:06 23:28:37 68° 75° (ENE) 23:33:10 437.505/2401.250
DX 1 31 Mar 23:26:48 23:30:26 25° 266° (W) 23:34:00 434.975-435.025
BUGSAT 1 31 Mar 23:29:36 23:32:00 16° 91° (E) 23:34:33 437.445
ANTELSAT 31 Mar 23:32:46 23:37:16 52° 99° (E) 23:41:51 437.575/2403.000
YUBILEINY 31 Mar 23:42:59 23:49:50 25° 63° (ENE) 23:56:54 435.215
POPSAT HIP 1 31 Mar 23:43:23 23:47:12 33° 96° (E) 23:51:04 437.405
TISAT 1 31 Mar 23:48:16 23:51:38 24° 68° (ENE) 23:55:05 437.305
NANOSAT C BR1 31 Mar 23:52:44 23:56:45 41° 98° (E) 00:00:47 145.865
POLYITAN 1 31 Mar 23:59:20 00:03:29 50° 100° (E) 00:07:38 437.675
SPROUT 01 Apr 00:07:37 00:11:42 45° 72° (ENE) 00:15:49 437.525
CUBEBUG 1 01 Apr 00:08:55 00:13:09 44° 262° (W) 00:17:21 437.445
SWISSCUBE 01 Apr 00:14:44 00:15:12 10° 59° (ENE) 00:15:56 437.505
VELOX 1 01 Apr 00:18:16 00:21:20 18° 269° (W) 00:24:16 145.980
AISAT 01 Apr 00:24:43 00:27:19 15° 270° (W) 00:29:45 437.250
PCSat 01 Apr 00:27:04 00:32:21 52° 245° (WSW) 00:37:35 145.827
UNISAT 6 01 Apr 00:28:53 00:33:14 42° 288° (WNW) 00:37:37 437.425
ISS 01 Apr 00:33:10 00:35:46 21° 346° (NNW) 00:38:21 145.825
QB50P1 01 Apr 00:34:57 00:39:09 65° 286° (WNW) 00:43:21 145.935-145.965
DUCHIFAT 1 01 Apr 00:35:13 00:39:25 66° 286° (WNW) 00:43:36 145.980
TIGRISAT 01 Apr 00:37:58 00:42:10 35° 290° (WNW) 00:46:22 435.000
QB50P2 01 Apr 00:50:54 00:54:56 42° 288° (WNW) 00:58:56 145.880/145.840
ITUPSAT 1 01 Apr 01:01:55 01:05:53 27° 67° (ENE) 01:09:56 437.325
BUGSAT 1 01 Apr 01:03:56 01:07:46 41° 288° (WNW) 01:11:33 437.445
ESTCUBE 1 01 Apr 01:04:07 01:06:04 12° 272° (W) 01:07:46 437.505/2401.250
ANTELSAT 01 Apr 01:10:35 01:13:44 18° 295° (WNW) 01:16:46 437.575/2403.000
RS-15 01 Apr 01:17:53 01:26:57 27° 19° (NNE) 01:36:30 29.354- 29.394
POPSAT HIP 1 01 Apr 01:19:36 01:22:58 23° 292° (WNW) 01:26:13 437.405
SO-50 01 Apr 01:21:10 01:22:29 11° 28° (NNE) 01:23:59 436.795
TISAT 1 01 Apr 01:23:36 01:27:20 30° 264° (W) 01:31:02 437.305
NANOSAT C BR1 01 Apr 01:29:23 01:32:21 18° 294° (WNW) 01:35:12 145.865
POLYITAN 1 01 Apr 01:36:26 01:39:03 16° 295° (WNW) 01:41:31 437.675
YUBILEINY 01 Apr 01:38:53 01:47:43 75° 265° (W) 01:56:25 435.215
SPROUT 01 Apr 01:45:18 01:48:05 16° 270° (W) 01:50:42 437.525
SWISSCUBE 01 Apr 01:47:32 01:52:20 80° 75° (ENE) 01:57:11 437.505
BEESAT 01 Apr 01:50:01 01:54:49 78° 74° (ENE) 01:59:38 436.000
ISS 01 Apr 02:10:44 02:13:00 17° 6° (N) 02:15:16 145.825
Oscar 19 01 Apr 02:23:35 02:28:37 51° 99° (E) 02:33:41 437.125/150
ITUPSAT 1 01 Apr 02:39:13 02:43:39 36° 263° (W) 02:48:05 437.325
KKS-1 01 Apr 02:50:45 02:55:07 63° 74° (ENE) 02:59:32 437.445
SO-50 01 Apr 02:59:35 03:04:20 46° 49° (NE) 03:09:06 436.795
Gurwin Techsat 1B 01 Apr 03:01:20 03:05:58 30° 95° (E) 03:10:40 435.225
STARS 01 Apr 03:16:08 03:20:29 75° 75° (ENE) 03:24:52 437.465
SWISSCUBE 01 Apr 03:29:19 03:30:55 11° 273° (W) 03:32:12 437.505
RS-15 01 Apr 03:30:59 03:42:19 63° 48° (NE) 03:54:11 29.354- 29.394
BEESAT 01 Apr 03:31:36 03:33:20 11° 273° (W) 03:34:47 436.000
ITAMSAT 1 01 Apr 03:35:13 03:40:25 75° 102° (ESE) 03:45:35 435.822/435.867
YUBILEINY 01 Apr 03:38:44 03:43:09 14° 284° (WNW) 03:46:58 435.215
AO-7 01 Apr 03:44:09 03:48:44 16° 87° (E) 03:53:52 29.400- 29.500
ISS 01 Apr 03:46:58 03:50:02 38° 25° (NNE) 03:53:05 145.825
AIST 1 01 Apr 03:54:48 03:58:48 36° 92° (E) 04:02:51
JAS-2 01 Apr 04:00:52 04:06:01 20° 84° (E) 04:11:11 435.910
Oscar 19 01 Apr 04:03:43 04:07:40 22° 296° (WNW) 04:11:30 437.125/150
O/OREOS (USA 219) 01 Apr 04:19:39 04:24:15 84° 293° (WNW) 04:28:53 437.305
AUBIESAT-1 01 Apr 04:25:48 04:28:44 19° 58° (ENE) 04:31:55 437.475
KKS-1 01 Apr 04:30:13 04:32:16 13° 272° (W) 04:34:06 437.445
SO-50 01 Apr 04:40:37 04:44:41 25° 247° (WSW) 04:48:39 436.795
Gurwin Techsat 1B 01 Apr 04:41:11 04:46:01 36° 292° (WNW) 04:50:47 435.225
MOZHAYETS 4 01 Apr 04:45:57 04:50:30 59° 74° (ENE) 04:55:06
M-CUBED/EXP-1 PRIME 01 Apr 04:51:42 04:55:30 36° 64° (ENE) 04:59:39 437.505
HORYU 2 01 Apr 04:54:52 04:59:24 89° 286° (WNW) 05:03:55 437.375
VERMONT LUNAR 01 Apr 04:56:16 04:59:06 26° 159° (SSE) 05:01:58 437.305
STARS 01 Apr 04:57:07 04:57:35 10° 273° (W) 04:57:46 437.465
